{"data":{"norad_id":67602,"epoch":"2026-09-18T23:55:14.972448Z","epoch_age_seconds":198866,"freshness":"STALE","line1":"1 67602U 26018P   26261.99670107  .00016571  00000+0  51444-3 0  9994","line2":"2 67602  97.2859 325.5341 0000473 108.2125 251.9169 15.33448199 36963","mean_motion":15.33448199,"eccentricity":4.73e-5,"inclination_deg":97.2859,"raan_deg":325.5341,"arg_perigee_deg":108.2125,"mean_anomaly_deg":251.9169,"bstar":0.00051444,"rev_number":3696,"period_min":93.906008754587,"perigee_km":465.20995089931,"apogee_km":465.85736214342,"semimajor_km":6843.6706565214,"source":"CELESTRAK","updated_at":"2026-09-20T09:00:43.605080Z"}}